Benson, MN

3:48 AM CST on January 23, 2017 (GMT -0600)
Benson Municipal

Weather History for KBBB - April, 2014

Change the Weather History Date:

Friday, April 18, 2014

  Actual Average Record
Temperature  
Mean Temperature 38 °F -  
Max Temperature 51 °F 60 °F 89 °F (1985)
Min Temperature 24 °F 36 °F 18 °F (1953)
Degree Days  
Heating Degree Days 28    
Moisture  
Dew Point 29 °F    
Average Humidity 70    
Maximum Humidity 93    
Minimum Humidity 54    
Precipitation  
Precipitation 0.00 in - - ()
Sea Level Pressure  
Sea Level Pressure 30.21 in    
Wind  
Wind Speed 8 mph (SE)    
Max Wind Speed 28 mph    
Max Gust Speed 38 mph    
Visibility 10 miles    
Events Snow    
Averages and records for this station are not official NWS values.
T = Trace of Precipitation, MM = Missing Value Source: NWS Daily Summary

Daily Weather History Graph

Daily Weather History Graph

Search for Another Location

Airport or City:

Trip Planner

Search our weather history database for the weather conditions in past years. The results will help you decide how hot, cold, wet, or windy it might be!

Date:

Astronomy

Apr. 18, 2014 Rise Set
Actual Time 6:32 AM CDT 8:12 PM CDT
Civil Twilight 6:01 AM CDT 8:43 PM CDT
Nautical Twilight 5:23 AM CDT 9:21 PM CDT
Astronomical Twilight 4:42 AM CDT 10:02 PM CDT
Moon No Moon Rise 8:48 AM CDT (4/18)
Length of Visible Light 14h 42m
Length of Day
13h 40m
Waning Gibbous, 87% of the Moon is Illuminated
Apr 18
Waning Gibbous
Apr 22
Last Quarter
Apr 29
New
May 6
First Quarter
May 14
Full

Hourly Weather History & Observations

Time (CDT) Temp. Windchill Dew Point Humidity Pressure Visibility Wind Dir Wind Speed Gust Speed Precip Events Conditions
12:12 AM 26.6 °F - 21.2 °F 80% 30.30 in 10.0 mi Calm Calm - N/A   Clear
12:33 AM 26.6 °F - 21.2 °F 80% 30.30 in 10.0 mi Calm Calm - N/A   Scattered Clouds
12:52 AM 24.8 °F - 21.2 °F 86% 30.30 in 10.0 mi Calm Calm - N/A   Scattered Clouds
1:12 AM 24.8 °F - 19.4 °F 80% 30.30 in 10.0 mi Calm Calm - N/A   Mostly Cloudy
1:33 AM 24.8 °F - 21.2 °F 86% 30.30 in 10.0 mi Calm Calm - N/A   Mostly Cloudy
1:52 AM 26.6 °F - 21.2 °F 80% 30.30 in 10.0 mi Calm Calm - N/A   Overcast
2:12 AM 26.6 °F - 21.2 °F 80% 30.29 in 10.0 mi Calm Calm - N/A   Overcast
2:33 AM 28.4 °F - 23.0 °F 80% 30.29 in 10.0 mi Calm Calm - N/A   Overcast
2:52 AM 28.4 °F - 24.8 °F 86% 30.29 in 10.0 mi Calm Calm - N/A   Overcast
3:12 AM 28.4 °F - 24.8 °F 86% 30.29 in 10.0 mi Calm Calm - N/A   Overcast
3:33 AM 28.4 °F - 24.8 °F 86% 30.30 in 10.0 mi Calm Calm - N/A   Overcast
3:52 AM 28.4 °F - 24.8 °F 86% 30.30 in 10.0 mi Calm Calm - N/A   Overcast
4:12 AM 28.4 °F 23.3 °F 26.6 °F 93% 30.29 in 10.0 mi East 4.6 mph - N/A Snow Light Snow
4:33 AM 28.4 °F 24.6 °F 24.8 °F 86% 30.29 in 10.0 mi ESE 3.5 mph - N/A   Overcast
4:52 AM 28.4 °F 23.3 °F 24.8 °F 86% 30.29 in 10.0 mi ESE 4.6 mph - N/A   Overcast
5:12 AM 28.4 °F - 26.6 °F 93% 30.29 in 10.0 mi Calm Calm - N/A   Overcast
5:33 AM 28.4 °F - 26.6 °F 93% 30.29 in 10.0 mi Calm Calm - N/A   Overcast
5:52 AM 28.4 °F - 24.8 °F 86% 30.29 in 10.0 mi Calm Calm - N/A   Overcast
6:12 AM 28.4 °F 22.2 °F 24.8 °F 86% 30.29 in 10.0 mi SE 5.8 mph - N/A   Overcast
6:33 AM 28.4 °F 24.6 °F 24.8 °F 86% 30.30 in 10.0 mi ESE 3.5 mph - N/A   Overcast
6:52 AM 28.4 °F 23.3 °F 24.8 °F 86% 30.30 in 10.0 mi SE 4.6 mph - N/A   Mostly Cloudy
7:12 AM 28.4 °F 22.2 °F 24.8 °F 86% 30.30 in 10.0 mi SE 5.8 mph - N/A   Mostly Cloudy
7:33 AM 30.2 °F 24.3 °F 24.8 °F 80% 30.30 in 10.0 mi SE 5.8 mph - N/A   Mostly Cloudy
7:52 AM 32.0 °F 26.4 °F 24.8 °F 75% 30.31 in 10.0 mi SE 5.8 mph - N/A   Mostly Cloudy
8:12 AM 33.8 °F 26.4 °F 24.8 °F 70% 30.30 in 10.0 mi SE 9.2 mph - N/A   Mostly Cloudy
8:33 AM 33.8 °F 26.4 °F 24.8 °F 70% 30.30 in 10.0 mi SSE 9.2 mph - N/A   Mostly Cloudy
8:52 AM 35.6 °F 28.0 °F 26.6 °F 70% 30.30 in 10.0 mi SSE 10.4 mph - N/A   Scattered Clouds
9:12 AM 35.6 °F 28.0 °F 26.6 °F 70% 30.29 in 10.0 mi SE 10.4 mph 16.1 mph N/A   Scattered Clouds
9:52 AM 37.4 °F 28.9 °F 28.4 °F 70% 30.30 in 10.0 mi South 13.8 mph - N/A   Mostly Cloudy
10:13 AM 37.4 °F 28.9 °F 26.6 °F 65% 30.30 in 10.0 mi South 13.8 mph 23.0 mph N/A   Scattered Clouds
10:33 AM 37.4 °F 28.2 °F 28.4 °F 70% 30.31 in 10.0 mi South 16.1 mph - N/A   Scattered Clouds
10:52 AM 39.2 °F 31.2 °F 28.4 °F 65% 30.30 in 10.0 mi SSE 13.8 mph - N/A   Mostly Cloudy
11:13 AM 39.2 °F 30.8 °F 30.2 °F 70% 30.29 in 10.0 mi SSE 15.0 mph 23.0 mph N/A   Scattered Clouds
11:33 AM 39.2 °F 30.2 °F 30.2 °F 70% 30.28 in 10.0 mi SSE 17.3 mph 24.2 mph N/A   Clear
11:52 AM 39.2 °F 29.6 °F 30.2 °F 70% 30.28 in 10.0 mi SSE 19.6 mph 24.2 mph N/A   Scattered Clouds
12:13 PM 42.8 °F 34.5 °F 30.2 °F 61% 30.27 in 10.0 mi SSE 18.4 mph 26.5 mph N/A   Scattered Clouds
12:33 PM 42.8 °F 35.8 °F 32.0 °F 66% 30.27 in 10.0 mi SSE 13.8 mph 25.3 mph N/A   Clear
12:52 PM 42.8 °F 34.0 °F 30.2 °F 61% 30.26 in 10.0 mi South 20.7 mph 26.5 mph N/A   Clear
1:13 PM 42.8 °F 34.0 °F 30.2 °F 61% 30.25 in 10.0 mi SSE 20.7 mph 26.5 mph N/A   Clear
1:33 PM 42.8 °F 34.5 °F 30.2 °F 61% 30.24 in 10.0 mi SSE 18.4 mph 26.5 mph N/A   Mostly Cloudy
1:52 PM 42.8 °F 35.1 °F 30.2 °F 61% 30.23 in 10.0 mi SE 16.1 mph 24.2 mph N/A   Mostly Cloudy
2:13 PM 44.6 °F 37.4 °F 30.2 °F 57% 30.21 in 10.0 mi SSE 16.1 mph 27.6 mph N/A   Scattered Clouds
2:32 PM 44.6 °F 36.4 °F 30.2 °F 57% 30.20 in 10.0 mi SSE 20.7 mph 31.1 mph N/A   Scattered Clouds
2:52 PM 46.4 °F 38.5 °F 32.0 °F 57% 30.18 in 10.0 mi SE 21.9 mph 32.2 mph N/A   Clear
3:13 PM 48.2 °F - 32.0 °F 54% 30.17 in 10.0 mi SE 25.3 mph 32.2 mph N/A   Clear
3:32 PM 48.2 °F - 33.8 °F 58% 30.16 in 10.0 mi SSE 19.6 mph 33.4 mph N/A   Clear
4:12 PM 48.2 °F - 33.8 °F 58% 30.14 in 10.0 mi SSE 21.9 mph 32.2 mph N/A   Clear
4:32 PM 50.0 °F - 33.8 °F 54% 30.14 in 10.0 mi SSE 20.7 mph 33.4 mph N/A   Clear
4:53 PM 51.8 °F - 35.6 °F 54% 30.13 in 10.0 mi SSE 25.3 mph 38.0 mph N/A   Clear
5:12 PM 51.8 °F - 35.6 °F 54% 30.13 in 10.0 mi SSE 21.9 mph 36.8 mph N/A   Clear
5:33 PM 50.0 °F - 35.6 °F 58% 30.12 in 10.0 mi SSE 24.2 mph 29.9 mph N/A   Clear
5:53 PM 51.8 °F - 35.6 °F 54% 30.12 in 10.0 mi SE 19.6 mph 31.1 mph N/A   Clear
6:12 PM 50.0 °F - 35.6 °F 58% 30.10 in 10.0 mi SE 21.9 mph 27.6 mph N/A   Clear
6:33 PM 50.0 °F - 35.6 °F 58% 30.09 in 10.0 mi SE 18.4 mph 26.5 mph N/A   Clear
6:53 PM 48.2 °F - 35.6 °F 62% 30.08 in 10.0 mi SE 18.4 mph 28.8 mph N/A   Clear
7:12 PM 48.2 °F - 35.6 °F 62% 30.06 in 10.0 mi SE 19.6 mph 26.5 mph N/A   Clear
7:33 PM 46.4 °F 39.0 °F 35.6 °F 66% 30.07 in 10.0 mi SE 19.6 mph 28.8 mph N/A   Clear
7:53 PM 46.4 °F 39.2 °F 35.6 °F 66% 30.06 in 10.0 mi SE 18.4 mph 27.6 mph N/A   Clear
8:12 PM 46.4 °F 39.2 °F 35.6 °F 66% 30.05 in 10.0 mi SE 18.4 mph 27.6 mph N/A   Clear
8:33 PM 46.4 °F 39.0 °F 33.8 °F 62% 30.05 in 10.0 mi SE 19.6 mph 26.5 mph N/A   Clear
8:53 PM 46.4 °F 39.5 °F 33.8 °F 62% 30.05 in 10.0 mi SE 17.3 mph 28.8 mph N/A   Clear
9:12 PM 44.6 °F 36.6 °F 33.8 °F 66% 30.04 in 10.0 mi SE 19.6 mph 26.5 mph N/A   Clear
9:33 PM 44.6 °F 37.4 °F 33.8 °F 66% 30.04 in 10.0 mi SE 16.1 mph 26.5 mph N/A   Clear
10:12 PM 44.6 °F 37.2 °F 33.8 °F 66% 30.04 in 10.0 mi SE 17.3 mph 26.5 mph N/A   Clear
10:33 PM 46.4 °F 39.0 °F 33.8 °F 62% 30.03 in 10.0 mi SSE 19.6 mph 29.9 mph N/A   Clear
10:52 PM 46.4 °F 39.0 °F 33.8 °F 62% 30.02 in 10.0 mi SSE 19.6 mph 32.2 mph N/A   Clear
11:12 PM 46.4 °F 38.3 °F 33.8 °F 62% 30.01 in 10.0 mi SSE 23.0 mph 31.1 mph N/A   Clear
11:33 PM 46.4 °F 37.7 °F 33.8 °F 62% 30.00 in 10.0 mi SSE 26.5 mph 35.7 mph N/A   Clear
11:52 PM 46.4 °F 37.5 °F 33.8 °F 62% 30.00 in 10.0 mi SSE 27.6 mph 38.0 mph N/A   Clear